Total_Precipitation_Accumulation
0.15 0.22 0.45 0.44 0.45 0.43 0.41 0.35 0.34 0.37 0.45 0.55 0.56 0.51 0.51 0.52 0.51 0.44 0.50 0.52 0.55 0.59 0.60 0.66 0.70 0.69 0.70 0.69 0.58 0.38 0.28 0.26 0.22 0.17 0.20 0.22 0.26 0.27 0.23 0.25 0.28 0.30 0.37
0.15 0.23 0.42 0.43 0.48 0.50 0.46 0.38 0.35 0.37 0.45 0.54 0.59 0.59 0.62 0.64 0.60 0.55 0.56 0.57 0.59 0.61 0.63 0.64 0.58 0.49 0.45 0.43 0.36 0.30 0.26 0.17 0.12 0.08 0.06 0.09 0.18 0.25 0.23 0.23 0.27 0.36 0.43
0.16 0.24 0.40 0.46 0.51 0.51 0.47 0.40 0.35 0.38 0.45 0.52 0.60 0.66 0.68 0.69 0.67 0.68 0.68 0.66 0.69 0.65 0.66 0.58 0.47 0.38 0.34 0.30 0.27 0.25 0.23 0.14 0.09 0.07 0.06 0.10 0.15 0.26 0.26 0.28 0.37 0.45 0.50
0.19 0.26 0.35 0.49 0.55 0.54 0.50 0.48 0.41 0.42 0.48 0.53 0.60 0.67 0.70 0.72 0.77 0.77 0.76 0.74 0.74 0.62 0.57 0.50 0.42 0.33 0.28 0.24 0.22 0.21 0.21 0.16 0.10 0.07 0.11 0.16 0.20 0.36 0.40 0.45 0.53 0.51 0.50
0.27 0.34 0.48 0.60 0.62 0.61 0.58 0.57 0.53 0.49 0.53 0.59 0.67 0.74 0.76 0.79 0.81 0.76 0.72 0.67 0.61 0.52 0.49 0.43 0.34 0.29 0.25 0.21 0.19 0.18 0.18 0.14 0.08 0.06 0.09 0.15 0.26 0.48 0.52 0.55 0.60 0.54 0.47
0.40 0.48 0.62 0.71 0.78 0.75 0.70 0.65 0.62 0.60 0.60 0.62 0.71 0.78 0.81 0.86 0.87 0.80 0.72 0.57 0.46 0.42 0.43 0.38 0.31 0.28 0.26 0.21 0.20 0.20 0.18 0.13 0.06 0.06 0.11 0.16 0.26 0.51 0.51 0.56 0.58 0.57 0.55
0.57 0.66 0.74 0.85 0.93 0.92 0.88 0.80 0.72 0.69 0.68 0.68 0.76 0.82 0.91 0.94 0.91 0.88 0.75 0.57 0.44 0.40 0.44 0.39 0.33 0.30 0.27 0.23 0.22 0.21 0.18 0.13 0.06 0.07 0.12 0.18 0.31 0.52 0.58 0.58 0.58 0.54 0.56
0.79 0.92 0.96 1.09 1.08 1.06 0.98 0.93 0.82 0.80 0.79 0.80 0.86 0.89 0.94 0.98 0.93 0.90 0.79 0.65 0.50 0.44 0.46 0.42 0.37 0.33 0.31 0.26 0.24 0.21 0.16 0.11 0.06 0.06 0.11 0.18 0.31 0.51 0.60 0.53 0.50 0.46 0.46
1.19 1.31 1.25 1.23 1.11 1.13 1.08 0.97 0.91 0.85 0.88 0.91 0.93 0.88 0.89 0.90 0.89 0.85 0.77 0.69 0.61 0.56 0.55 0.53 0.45 0.39 0.34 0.30 0.26 0.21 0.14 0.09 0.07 0.06 0.08 0.16 0.30 0.48 0.58 0.58 0.54 0.48 0.47
1.56 1.71 1.64 1.47 1.31 1.21 1.17 1.06 0.99 0.93 0.91 0.90 0.82 0.70 0.67 0.73 0.79 0.75 0.62 0.61 0.60 0.58 0.59 0.56 0.51 0.44 0.36 0.31 0.25 0.19 0.14 0.10 0.08 0.08 0.11 0.19 0.33 0.51 0.61 0.62 0.59 0.54 0.53
1.88 1.96 2.01 1.85 1.59 1.41 1.29 1.12 1.14 1.08 0.99 0.92 0.77 0.62 0.58 0.63 0.68 0.61 0.48 0.48 0.55 0.55 0.56 0.57 0.52 0.46 0.38 0.30 0.26 0.21 0.17 0.12 0.10 0.11 0.14 0.23 0.42 0.59 0.63 0.58 0.54 0.52 0.55
1.95 2.04 2.18 2.06 1.88 1.70 1.47 1.23 1.27 1.25 1.05 0.90 0.74 0.67 0.63 0.61 0.65 0.59 0.51 0.46 0.53 0.51 0.50 0.59 0.58 0.52 0.42 0.32 0.27 0.24 0.21 0.16 0.14 0.13 0.16 0.27 0.49 0.63 0.63 0.52 0.48 0.48 0.51
2.07 2.23 2.33 2.33 2.07 1.95 1.81 1.46 1.28 1.29 1.23 1.10 0.92 0.81 0.76 0.75 0.73 0.71 0.63 0.57 0.55 0.46 0.42 0.45 0.51 0.45 0.38 0.34 0.31 0.27 0.24 0.22 0.20 0.18 0.20 0.26 0.43 0.59 0.62 0.54 0.49 0.50 0.49
2.23 2.28 2.38 2.53 2.34 2.06 1.92 1.75 1.55 1.40 1.35 1.26 1.10 1.00 0.98 0.91 0.78 0.70 0.64 0.58 0.61 0.54 0.48 0.47 0.43 0.39 0.40 0.40 0.36 0.33 0.31 0.29 0.23 0.22 0.23 0.27 0.37 0.52 0.60 0.61 0.58 0.57 0.57
2.24 2.36 2.43 2.51 2.52 2.29 2.10 1.92 1.75 1.59 1.46 1.49 1.44 1.28 1.16 1.07 0.91 0.79 0.70 0.70 0.72 0.69 0.64 0.58 0.53 0.52 0.48 0.48 0.44 0.37 0.36 0.37 0.32 0.29 0.28 0.28 0.30 0.42 0.55 0.65 0.71 0.73 0.74
2.14 2.32 2.44 2.53 2.63 2.58 2.28 2.12 1.95 1.71 1.53 1.58 1.59 1.47 1.41 1.31 1.23 1.10 0.98 0.88 0.85 0.83 0.80 0.75 0.68 0.68 0.64 0.58 0.54 0.47 0.40 0.41 0.43 0.42 0.39 0.35 0.32 0.34 0.47 0.63 0.77 0.85 0.86
2.11 2.32 2.33 2.42 2.62 2.68 2.55 2.37 2.16 1.99 1.71 1.62 1.55 1.49 1.51 1.44 1.36 1.31 1.25 1.19 1.12 1.07 1.00 0.96 0.92 0.89 0.81 0.70 0.63 0.58 0.53 0.49 0.49 0.53 0.52 0.47 0.42 0.38 0.44 0.60 0.76 0.89 0.90
2.17 2.35 2.38 2.37 2.53 2.60 2.63 2.64 2.52 2.37 2.11 1.84 1.70 1.64 1.61 1.59 1.50 1.40 1.31 1.23 1.21 1.27 1.27 1.19 1.10 1.04 0.91 0.80 0.70 0.64 0.56 0.54 0.52 0.55 0.59 0.60 0.56 0.47 0.42 0.50 0.61 0.76 0.85
2.10 2.29 2.45 2.44 2.57 2.67 2.67 2.69 2.67 2.53 2.43 2.23 1.89 1.67 1.64 1.71 1.71 1.62 1.47 1.37 1.36 1.26 1.26 1.29 1.21 1.10 1.03 0.97 0.88 0.78 0.67 0.59 0.55 0.54 0.54 0.56 0.58 0.54 0.47 0.49 0.54 0.60 0.71
2.01 2.19 2.37 2.45 2.57 2.83 2.92 2.85 2.80 2.56 2.34 2.35 2.18 1.89 1.72 1.75 1.84 1.78 1.62 1.56 1.60 1.49 1.33 1.22 1.22 1.18 1.08 1.07 1.05 0.96 0.86 0.77 0.71 0.63 0.57 0.55 0.54 0.52 0.50 0.47 0.47 0.50 0.57
1.93 2.11 2.26 2.36 2.45 2.68 2.85 2.83 2.71 2.54 2.30 2.21 2.19 2.09 1.97 1.88 1.93 1.92 1.77 1.66 1.66 1.58 1.44 1.35 1.27 1.26 1.24 1.21 1.28 1.19 1.06 0.96 0.90 0.82 0.73 0.67 0.64 0.62 0.57 0.53 0.50 0.48 0.49
1.66 1.91 2.16 2.28 2.37 2.38 2.44 2.66 2.81 2.86 2.67 2.38 2.22 2.14 2.04 1.96 1.96 1.94 1.90 1.82 1.74 1.69 1.64 1.59 1.54 1.45 1.41 1.43 1.47 1.51 1.37 1.20 0.97 0.84 0.83 0.78 0.71 0.69 0.64 0.58 0.52 0.49 0.49
1.42 1.67 1.99 2.17 2.31 2.33 2.35 2.61 2.83 2.99 2.83 2.49 2.14 1.97 1.98 2.00 2.01 1.93 1.93 1.97 1.90 1.79 1.68 1.64 1.60 1.57 1.51 1.49 1.51 1.62 1.48 1.22 0.97 0.83 0.76 0.73 0.72 0.71 0.69 0.68 0.67 0.62 0.58
1.28 1.45 1.63 1.85 2.04 2.24 2.33 2.40 2.44 2.55 2.55 2.29 2.16 2.06 2.05 2.05 2.05 2.01 1.97 1.97 1.96 1.89 1.72 1.67 1.61 1.56 1.56 1.53 1.50 1.42 1.32 1.14 1.06 0.95 0.80 0.73 0.73 0.73 0.75 0.75 0.76 0.77 0.74
1.14 1.38 1.51 1.59 1.80 2.04 2.20 2.25 2.38 2.36 2.39 2.44 2.39 2.28 2.17 2.11 2.05 2.00 1.96 1.95 1.87 1.81 1.78 1.80 1.73 1.69 1.62 1.54 1.47 1.42 1.41 1.24 1.08 1.05 0.93 0.78 0.78 0.77 0.81 0.85 0.84 0.84 0.83
1.06 1.24 1.46 1.47 1.56 1.72 1.97 2.19 2.25 2.20 2.24 2.28 2.27 2.19 2.15 2.13 2.09 2.00 1.90 1.86 1.81 1.80 1.80 1.83 1.87 1.81 1.77 1.71 1.59 1.47 1.47 1.45 1.28 1.21 1.14 0.94 0.87 0.81 0.79 0.82 0.86 0.86 0.84